FW3071 Weather Reports


time (UTC)temp
C
wind
direction
speed
KPH
gust
KPH
rain 1hr
cm
rain 24hr
cm
rain mn
cm
humidity
%
barometer
mb
20260504050519 20 125 6.4 14.5 0.00 0.00 0.00 74 1018.3
20260504045519 20 113 6.4 14.5 0.00 0.00 0.00 74 1018.5
20260504045019 20 130 6.4 14.5 0.00 0.00 0.00 74 1018.6
20260504044545 20 105 6.4 14.5 0.00 0.00 0.00 73 1018.7
20260504044019 20 149 8.0 14.5 0.00 0.00 0.00 73 1018.7
20260504043519 20 124 8.0 14.5 0.00 0.00 0.00 73 1018.8
20260504043036 20 129 8.0 16.1 0.00 0.00 0.00 73 1018.8
20260504042518 20 122 8.0 16.1 0.00 0.00 0.00 73 1018.6
20260504042116 20 123 9.7 16.1 0.00 0.00 0.00 73 1018.7
20260504041536 20 130 6.4 14.5 0.00 0.00 0.00 73 1018.8
20260504041020 20 132 8.0 14.5 0.00 0.00 0.00 73 1018.8
20260504040520 20 96 6.4 12.9 0.00 0.00 0.00 73 1018.6
20260504035520 20 133 6.4 12.9 0.00 0.00 0.00 73 1018.8
20260504035020 21 124 6.4 14.5 0.00 0.00 0.00 72 1018.7
20260504034536 21 127 8.0 17.7 0.00 0.00 0.00 72 1018.7
20260504034020 21 136 8.0 19.3 0.00 0.00 0.00 72 1018.8
20260504033521 21 134 12.9 19.3 0.00 0.00 0.00 71 1018.6
20260504033040 21 121 9.7 17.7 0.00 0.00 0.00 72 1018.6
20260504032521 21 126 9.7 17.7 0.00 0.00 0.00 72 1018.6
20260504032021 21 136 4.8 14.5 0.00 0.00 0.00 72 1018.6
20260504031539 21 95 8.0 14.5 0.00 0.00 0.00 72 1018.6
20260504031019 21 134 8.0 16.1 0.00 0.00 0.00 71 1018.5
20260504030520 21 115 8.0 16.1 0.00 0.00 0.00 71 1018.6
20260504030039 21 123 6.4 14.5 0.00 0.00 0.00 71 1018.5
20260504025519 21 111 4.8 14.5 0.00 0.00 0.00 71 1018.6
20260504025019 21 111 4.8 14.5 0.00 0.00 0.00 71 1018.6
20260504024535 21 111 4.8 14.5 0.00 0.00 0.00 70 1018.7
20260504024021 21 103 4.8 14.5 0.00 0.00 0.00 70 1018.6
20260504023519 21 107 4.8 14.5 0.00 0.00 0.00 70 1018.6
20260504023035 21 88 4.8 14.5 0.00 0.00 0.00 69 1018.5
20260504022521 21 127 6.4 14.5 0.00 0.00 0.00 68 1018.6
20260504022019 21 112 3.2 16.1 0.00 0.00 0.00 68 1018.6
20260504021534 21 121 4.8 17.7 0.00 0.00 0.00 68 1018.4
20260504021020 21 113 8.0 17.7 0.00 0.00 0.00 68 1018.3
20260504020519 21 103 6.4 16.1 0.00 0.00 0.00 68 1018.2
20260504020039 21 112 6.4 14.5 0.00 0.00 0.00 68 1018.2
20260504015519 21 91 4.8 14.5 0.00 0.00 0.00 68 1018.2
20260504015019 21 84 6.4 14.5 0.00 0.00 0.00 67 1018.2
20260504014539 21 119 6.4 16.1 0.00 0.00 0.00 67 1018.1
20260504014018 21 132 6.4 19.3 0.00 0.00 0.00 66 1018.0
20260504013518 21 106 6.4 19.3 0.00 0.00 0.00 66 1018.2
20260504013046 21 105 11.3 19.3 0.00 0.00 0.00 66 1018.1
20260504012523 21 105 4.8 16.1 0.00 0.00 0.00 66 1018.1
20260504012022 22 117 8.0 20.9 0.00 0.00 0.00 65 1017.9
20260504011537 22 128 9.7 20.9 0.00 0.00 0.00 65 1018.0
20260504011019 22 138 12.9 19.3 0.00 0.00 0.00 64 1018.0
20260504010520 22 114 11.3 20.9 0.00 0.00 0.00 64 1018.0
20260504010035 22 128 11.3 20.9 0.00 0.00 0.00 64 1018.0
20260504005519 22 113 12.9 20.9 0.00 0.00 0.00 63 1018.0
20260504005019 22 113 9.7 22.5 0.00 0.00 0.00 63 1018.0
20260504004535 23 91 12.9 22.5 0.00 0.00 0.00 61 1018.0
20260504004019 23 109 12.9 22.5 0.00 0.00 0.00 61 1018.1
20260504003520 23 125 12.9 22.5 0.00 0.00 0.00 59 1018.2
20260504003040 23 110 16.1 24.1 0.00 0.00 0.00 59 1018.3
20260504002519 23 95 12.9 24.1 0.00 0.00 0.00 59 1018.4
20260504002021 24 102 16.1 24.1 0.00 0.00 0.00 59 1018.4
20260504001550 24 92 12.9 24.1 0.00 0.00 0.00 59 1018.3
20260504001018 24 102 9.7 25.7 0.00 0.00 0.00 58 1018.3
20260504000518 24 111 14.5 25.7 0.00 0.00 0.00 57 1018.3
20260504000039 25 92 16.1 27.4 0.00 0.00 0.00 56 1018.3
20260503235518 25 102 12.9 27.4 0.00 0.00 0.00 56 1018.3
20260503235019 25 108 17.7 27.4 0.00 0.00 0.00 56 1018.3
20260503234535 25 96 14.5 27.4 0.00 0.00 0.00 56 1018.2
20260503234019 25 89 12.9 22.5 0.00 0.00 0.00 55 1018.2
20260503233521 25 82 12.9 24.1 0.00 0.00 0.00 57 1018.3
20260503233041 25 113 14.5 24.1 0.00 0.00 0.00 55 1018.3
20260503232520 26 105 12.9 24.1 0.00 0.00 0.00 54 1018.4
20260503232019 26 101 16.1 25.7 0.00 0.00 0.00 54 1018.5
20260503231539 26 71 14.5 25.7 0.00 0.00 0.00 55 1018.6
20260503231020 26 103 17.7 24.1 0.00 0.00 0.00 53 1018.6
20260503230520 26 128 12.9 24.1 0.00 0.00 0.00 53 1018.6
20260503230041 26 132 12.9 25.7 0.00 0.00 0.00 53 1018.5
20260503225520 26 93 14.5 25.7 0.00 0.00 0.00 54 1018.6
20260503225019 26 102 16.1 30.6 0.00 0.00 0.00 52 1018.8
20260503224536 26 111 12.9 30.6 0.00 0.00 0.00 55 1018.8
20260503224019 26 128 17.7 27.4 0.00 0.00 0.00 52 1018.8
20260503223519 26 106 17.7 27.4 0.00 0.00 0.00 53 1018.8
20260503223036 27 131 14.5 27.4 0.00 0.00 0.00 54 1018.8
20260503222518 26 108 14.5 27.4 0.00 0.00 0.00 56 1018.8
20260503222020 26 80 14.5 24.1 0.00 0.00 0.00 56 1018.7
20260503221544 26 77 14.5 24.1 0.00 0.00 0.00 56 1018.7
20260503221020 26 130 16.1 24.1 0.00 0.00 0.00 55 1018.8
20260503220520 27 146 16.1 24.1 0.00 0.00 0.00 52 1019.0
20260503220046 27 115 16.1 25.7 0.00 0.00 0.00 54 1019.1
20260503215521 27 111 16.1 25.7 0.00 0.00 0.00 55 1019.2
20260503215022 27 90 12.9 29.0 0.00 0.00 0.00 56 1019.4
20260503214540 26 115 12.9 29.0 0.00 0.00 0.00 55 1019.4
20260503214018 26 90 16.1 29.0 0.00 0.00 0.00 54 1019.6
20260503213519 27 88 16.1 30.6 0.00 0.00 0.00 52 1019.6
20260503213043 26 88 11.3 30.6 0.00 0.00 0.00 55 1019.7
20260503212518 27 94 17.7 27.4 0.00 0.00 0.00 55 1019.8
20260503212021 27 109 11.3 25.7 0.00 0.00 0.00 51 1019.9
20260503211537 28 86 14.5 25.7 0.00 0.00 0.00 51 1020.0
20260503211018 28 126 12.9 24.1 0.00 0.00 0.00 53 1020.1
20260503210521 28 109 12.9 24.1 0.00 0.00 0.00 52 1020.1
20260503210035 28 109 14.5 27.4 0.00 0.00 0.00 51 1020.1
20260503205519 28 79 14.5 27.4 0.00 0.00 0.00 52 1020.1
20260503205019 28 94 14.5 25.7 0.00 0.00 0.00 50 1020.2
20260503204535 27 53 14.5 25.7 0.00 0.00 0.00 51 1020.1
20260503204018 28 65 14.5 29.0 0.00 0.00 0.00 50 1020.3
20260503203519 28 93 9.7 29.0 0.00 0.00 0.00 52 1020.3
20260503203034 28 100 16.1 29.0 0.00 0.00 0.00 49 1020.4
20260503202518 28 60 14.5 30.6 0.00 0.00 0.00 51 1020.4
20260503202021 28 61 12.9 30.6 0.00 0.00 0.00 51 1020.7
20260503201542 28 77 11.3 30.6 0.00 0.00 0.00 52 1020.6
20260503201018 28 103 16.1 30.6 0.00 0.00 0.00 51 1020.7
20260503200520 28 92 16.1 30.6 0.00 0.00 0.00 52 1020.8
20260503200039 28 86 14.5 24.1 0.00 0.00 0.00 49 1020.9
20260503195519 28 107 14.5 24.1 0.00 0.00 0.00 49 1020.9
20260503195020 28 65 12.9 32.2 0.00 0.00 0.00 50 1021.0
20260503194538 28 88 17.7 32.2 0.00 0.00 0.00 52 1021.1
20260503194020 28 79 16.1 27.4 0.00 0.00 0.00 50 1021.1
20260503193519 28 90 17.7 27.4 0.00 0.00 0.00 48 1021.1
20260503193036 28 73 8.0 25.7 0.00 0.00 0.00 50 1021.3
20260503192518 28 80 12.9 27.4 0.00 0.00 0.00 47 1021.2
20260503192018 28 51 16.1 27.4 0.00 0.00 0.00 50 1021.4
20260503191534 28 68 12.9 24.1 0.00 0.00 0.00 50 1021.4
20260503191018 28 117 12.9 24.1 0.00 0.00 0.00 50 1021.5
20260503190518 27 75 12.9 27.4 0.00 0.00 0.00 51 1021.5
20260503190045 28 103 16.1 27.4 0.00 0.00 0.00 47 1021.5
20260503185520 28 79 14.5 27.4 0.00 0.00 0.00 48 1021.5
20260503185020 28 78 14.5 24.1 0.00 0.00 0.00 49 1021.7
20260503184540 28 57 12.9 25.7 0.00 0.00 0.00 50 1021.7
20260503184019 28 75 17.7 25.7 0.00 0.00 0.00 48 1021.9
20260503183518 28 123 16.1 24.1 0.00 0.00 0.00 51 1021.9
20260503183054 28 74 14.5 22.5 0.00 0.00 0.00 48 1022.0
20260503182519 28 76 12.9 25.7 0.00 0.00 0.00 49 1022.1
20260503182019 28 107 14.5 25.7 0.00 0.00 0.00 49 1022.2
20260503181536 28 22 11.3 25.7 0.00 0.00 0.00 51 1022.3
20260503181019 28 85 9.7 29.0 0.00 0.00 0.00 50 1022.4
20260503180519 28 70 14.5 29.0 0.00 0.00 0.00 49 1022.4
20260503180049 27 74 11.3 29.0 0.00 0.00 0.00 51 1022.5
20260503175519 27 58 17.7 29.0 0.00 0.00 0.00 50 1022.6
20260503175018 27 78 12.9 24.1 0.00 0.00 0.00 52 1022.7
20260503174535 27 83 14.5 25.7 0.00 0.00 0.00 47 1022.7
20260503174018 28 42 16.1 25.7 0.00 0.00 0.00 48 1022.7
20260503173518 27 53 9.7 24.1 0.00 0.00 0.00 54 1022.6
20260503173044 27 70 16.1 24.1 0.00 0.00 0.00 53 1022.7
20260503172518 26 107 14.5 24.1 0.00 0.00 0.00 55 1022.7
20260503172018 25 78 8.0 20.9 0.00 0.00 0.00 55 1022.8
20260503171546 25 59 9.7 20.9 0.00 0.00 0.00 57 1022.8
20260503171019 25 91 8.0 22.5 0.00 0.00 0.00 57 1022.8
20260503170520 25 44 11.3 25.7 0.00 0.00 0.00 58 1022.8
20260503150518 25 32 9.7 20.9 0.00 0.00 0.00 63 1022.9
20260503131021 18 323 3.2 8.0 0.00 0.00 0.00 81 1022.0
20260503130520 18 309 1.6 4.8 0.00 0.00 0.00 82 1022.0
20260503110520 15 0 0.0 0.0 0.00 0.00 0.00 82 1021.1
20260503081544 16 0 0.0 4.8 0.00 0.00 0.00 79 1021.4
20260503081019 16 0 0.0 1.6 0.00 0.00 0.00 77 1021.4
20260503080519 16 0 0.0 0.0 0.00 0.00 0.00 76 1021.4
20260503072517 17 0 0.0 1.6 0.00 0.00 0.00 72 1021.5
20260503072022 17 0 0.0 1.6 0.00 0.00 0.00 71 1021.5
20260503071546 17 0 0.0 3.2 0.00 0.00 0.00 71 1021.6
20260503071019 17 19 0.0 3.2 0.00 0.00 0.00 71 1021.5
20260503070518 17 19 0.0 3.2 0.00 0.00 0.00 72 1021.6